La Crosse, WI

8:25 AM CDT on April 26, 2017 (GMT -0500)
La Crosse Municipal

Weather History for KLSE - August, 2012

Change the Weather History Date:

Saturday, August 4, 2012

  Actual Average Record
Temperature  
Mean Temperature 73 °F 73 °F  
Max Temperature 80 °F 83 °F 99 °F (1896)
Min Temperature 65 °F 63 °F 45 °F (1912)
Degree Days  
Heating Degree Days 0 0  
Month to date heating degree days 0 0  
Since 1 June heating degree days 17  
Since 1 July heating degree days 0 5  
Cooling Degree Days 8 8  
Month to date cooling degree days 46 32  
Year to date cooling degree days 864 519  
Since 1 June cooling degree days 756  
Growing Degree Days 22 (Base 50)    
Moisture  
Dew Point 65 °F    
Average Humidity 75    
Maximum Humidity 90    
Minimum Humidity 60    
Precipitation  
Precipitation 1.32 in 0.15 in 2.93 in (1916)
Month to date precipitation 1.47 0.57  
Year to date precipitation 18.29 20.24  
Snow  
Snow 0.00 in 0.00 in 0.00 in (2002)
Month to date snowfall 0.0 0.0  
Since 1 June snowfall 0.0  
Since 1 July snowfall 0.0 0.0  
Snow Depth 0.00 in    
Sea Level Pressure  
Sea Level Pressure 29.88 in    
Wind  
Wind Speed 9 mph (WNW)    
Max Wind Speed 39 mph    
Max Gust Speed 47 mph    
Visibility 8 miles    
Events Fog , Rain , Thunderstorm    
T = Trace of Precipitation, MM = Missing Value Source: NWS Daily Summary

Daily Weather History Graph

Daily Weather History Graph

Search for Another Location

Airport or City:

Trip Planner

Search our weather history database for the weather conditions in past years. The results will help you decide how hot, cold, wet, or windy it might be!

Date:

Astronomy

Aug. 04, 2012 Rise Set
Actual Time 5:57 AM CDT 8:24 PM CDT
Civil Twilight 5:24 AM CDT 8:56 PM CDT
Nautical Twilight 4:44 AM CDT 9:36 PM CDT
Astronomical Twilight 3:58 AM CDT 10:21 PM CDT
Moon 9:23 PM CDT (8/4) 8:52 AM CDT (8/4)
Length of Visible Light 15h 31m
Length of Day
14h 26m
Waning Gibbous, 92% of the Moon is Illuminated
Aug 4
Waning Gibbous
Aug 9
Last Quarter
Aug 17
New
Aug 24
First Quarter
Aug 31
Full

Hourly Weather History & Observations

Time (CDT) Temp. Heat Index Dew Point Humidity Pressure Visibility Wind Dir Wind Speed Gust Speed Precip Events Conditions
12:53 AM 80.1 °F 82.7 °F 68.0 °F 67% 29.80 in 10.0 mi South 6.9 mph - N/A   Clear
1:53 AM 77.0 °F - 64.0 °F 64% 29.85 in 10.0 mi NW 41.4 mph 46.0 mph N/A   Mostly Cloudy
2:01 AM 73.4 °F - 62.6 °F 69% 29.91 in 10.0 mi NW 34.5 mph 47.2 mph 0.00 in Rain , Thunderstorm Light Rain
2:30 AM 66.2 °F - 64.4 °F 94% 29.96 in 7.0 mi North 12.7 mph 25.3 mph 0.03 in Rain Rain
2:39 AM 66.2 °F - 64.4 °F 94% 29.95 in 9.0 mi NNW 16.1 mph - 0.04 in Rain , Thunderstorm Light Rain
2:53 AM 66.0 °F - 64.0 °F 93% 29.90 in 10.0 mi North 9.2 mph - 0.04 in Rain , Thunderstorm Light Thunderstorms and Rain
3:02 AM 66.2 °F - 64.4 °F 94% 29.93 in 10.0 mi NNW 6.9 mph - 0.00 in   Scattered Clouds
3:26 AM 66.2 °F - 64.4 °F 94% 29.92 in 10.0 mi ESE 3.5 mph - 0.00 in Rain , Thunderstorm Light Rain
3:53 AM 66.9 °F - 64.0 °F 90% 29.81 in 10.0 mi ESE 15.0 mph 20.7 mph 0.02 in Rain Light Rain
4:53 AM 70.0 °F - 63.0 °F 78% 29.91 in 10.0 mi WNW 13.8 mph - 0.01 in Rain Light Rain
5:04 AM 68.0 °F - 62.6 °F 83% 29.91 in 2.5 mi ENE 3.5 mph - 0.12 in Rain , Thunderstorm Heavy Rain
5:12 AM 68.0 °F - 64.4 °F 88% 29.90 in 10.0 mi ESE 6.9 mph - 0.13 in Rain , Thunderstorm Light Rain
5:53 AM 68.0 °F - 64.9 °F 90% 29.82 in 10.0 mi SE 4.6 mph - 0.18 in Rain Light Rain
6:53 AM 68.0 °F - 64.9 °F 90% 29.80 in 10.0 mi SSE 5.8 mph - 0.00 in   Clear
7:53 AM 70.0 °F - 66.0 °F 87% 29.87 in 10.0 mi West 4.6 mph - N/A   Clear
8:53 AM 69.1 °F - 66.0 °F 90% 29.91 in 8.0 mi SSW 10.4 mph - 0.00 in Rain , Thunderstorm Light Rain
9:28 AM 68.0 °F - 64.4 °F 88% 29.82 in 5.0 mi ENE 12.7 mph - 0.10 in Rain Light Rain
9:53 AM 69.1 °F - 66.9 °F 93% 29.81 in 10.0 mi WSW 9.2 mph - 0.11 in   Scattered Clouds
10:53 AM 71.1 °F - 66.0 °F 84% 29.85 in 10.0 mi NW 12.7 mph - N/A   Mostly Cloudy
11:24 AM 69.8 °F - 66.2 °F 88% 29.87 in 2.5 mi NNW 15.0 mph - 0.02 in Rain , Thunderstorm Heavy Rain
11:28 AM 68.0 °F - 66.2 °F 94% 29.87 in 0.8 mi NNW 15.0 mph - 0.12 in Rain , Thunderstorm Heavy Rain
11:42 AM 68.0 °F - 66.2 °F 94% 29.90 in 1.5 mi NW 6.9 mph - 0.38 in Rain , Thunderstorm Heavy Thunderstorms and Rain
11:53 AM 68.0 °F - 66.0 °F 93% 29.91 in 1.2 mi West 8.1 mph - 0.50 in Rain , Thunderstorm Heavy Thunderstorms and Rain
12:02 PM 66.2 °F - 66.2 °F 100% 29.91 in 0.5 mi Calm Calm - 0.18 in Fog , Rain , Thunderstorm Heavy Thunderstorms and Rain
12:15 PM 66.2 °F - 66.2 °F 100% 29.91 in 2.0 mi Calm Calm - 0.28 in Rain , Thunderstorm Thunderstorms and Rain
12:24 PM 68.0 °F - 66.2 °F 94% 29.92 in 6.0 mi Calm Calm - 0.29 in Rain , Thunderstorm Light Thunderstorms and Rain
12:46 PM 68.0 °F - 66.2 °F 94% 29.91 in 3.0 mi ESE 5.8 mph - 0.36 in Rain , Thunderstorm Rain
12:53 PM 68.0 °F - 66.2 °F 94% 29.92 in 5.0 mi SSE 6.9 mph - N/A Rain , Thunderstorm Light Rain
1:15 PM 68.0 °F - 66.2 °F 94% 29.90 in 5.0 mi SE 5.8 mph - 0.02 in Rain , Thunderstorm Light Thunderstorms and Rain
1:36 PM 68.0 °F - 66.2 °F 94% 29.88 in 6.0 mi ESE 6.9 mph - 0.06 in Rain Light Rain
1:53 PM 68.0 °F - 66.9 °F 96% 29.83 in 7.0 mi ESE 11.5 mph - 0.07 in Rain Light Rain
2:32 PM 69.8 °F - 66.2 °F 88% 29.84 in 10.0 mi Calm Calm - 0.02 in   Partly Cloudy
2:53 PM 70.0 °F - 68.0 °F 93% 29.83 in 10.0 mi NW 8.1 mph - 0.02 in   Scattered Clouds
3:53 PM 72.0 °F - 68.0 °F 87% 29.85 in 10.0 mi NW 6.9 mph - N/A   Partly Cloudy
4:53 PM 73.9 °F - 66.9 °F 79% 29.84 in 10.0 mi SW 3.5 mph - N/A   Scattered Clouds
5:53 PM 77.0 °F - 66.9 °F 71% 29.83 in 10.0 mi West 9.2 mph - N/A   Overcast
6:53 PM 77.0 °F - 63.0 °F 62% 29.85 in 10.0 mi WNW 13.8 mph - N/A   Scattered Clouds
7:53 PM 73.9 °F - 60.1 °F 62% 29.86 in 10.0 mi WNW 9.2 mph - N/A   Clear
8:53 PM 71.1 °F - 61.0 °F 70% 29.88 in 10.0 mi West 6.9 mph - N/A   Clear
9:53 PM 68.0 °F - 60.1 °F 76% 29.89 in 10.0 mi WSW 5.8 mph - N/A   Clear
10:53 PM 64.9 °F - 61.0 °F 87% 29.88 in 10.0 mi Calm Calm - N/A   Clear
11:53 PM 70.0 °F - 59.0 °F 68% 29.89 in 10.0 mi West 13.8 mph 19.6 mph N/A   Clear